TFL6BH LGMT-EHAM

Flight info

Callsign TFL6BH
Flight time N/A
Altitude 38000
Route ERESO UN128 PEREN UL863 EVIVI L863 OKANA DCT RAVAK DCT BABIT DCT SASAL DCT DEXIT DCT MAPOX L604 BIGGE DCT AMSAN T281 NORKU
Aircraft B38M/M-SADE2E3FGHIJ1RWXYZ/LB1

Departure

Time 2026-05-05 11:11
Airport Mytilene International Airport (LGMT)

Arrival

Time N/A
Airport Amsterdam Airport Schiphol (EHAM)
Time Latitude Longitude Altitude Speed Heading
2026-05-05 10:27 39.06172 26.59842 25 ft 0 kts 58°
2026-05-05 11:03 39.06162 26.59822 29 ft 4 kts 58°
2026-05-05 11:03 39.06148 26.59792 31 ft 3 kts 58°
2026-05-05 11:04 39.06138 26.59769 29 ft 4 kts 85°
2026-05-05 11:04 39.06146 26.59746 26 ft 3 kts 148°
2026-05-05 11:04 39.06137 26.59761 29 ft 4 kts 123°
2026-05-05 11:04 39.06124 26.59791 29 ft 4 kts 121°
2026-05-05 11:05 39.06105 26.59816 26 ft 4 kts 144°
2026-05-05 11:05 39.06081 26.59826 26 ft 4 kts 172°
2026-05-05 11:05 39.06054 26.59824 31 ft 4 kts 191°
2026-05-05 11:05 39.06047 26.59822 31 ft 0 kts 193°
2026-05-05 11:07 39.06045 26.59821 30 ft 2 kts 193°
2026-05-05 11:07 39.05995 26.59806 28 ft 14 kts 194°
2026-05-05 11:08 39.05871 26.59802 32 ft 24 kts 154°
2026-05-05 11:08 39.05701 26.59934 28 ft 31 kts 148°
2026-05-05 11:08 39.05510 26.60087 27 ft 33 kts 148°
2026-05-05 11:08 39.05313 26.60250 28 ft 34 kts 148°
2026-05-05 11:09 39.05106 26.60401 30 ft 34 kts 148°
2026-05-05 11:09 39.04933 26.60556 32 ft 19 kts 134°
2026-05-05 11:09 39.04883 26.60594 32 ft 4 kts 242°
2026-05-05 11:09 39.04893 26.60572 32 ft 4 kts 314°
2026-05-05 11:10 39.04918 26.60549 32 ft 5 kts 329°
2026-05-05 11:10 39.05058 26.60438 31 ft 61 kts 328°
2026-05-05 11:10 39.05659 26.59966 27 ft 138 kts 327°
2026-05-05 11:10 39.06592 26.59192 400 ft 168 kts 327°
2026-05-05 11:11 39.07605 26.58358 1369 ft 176 kts 329°
2026-05-05 11:11 39.08596 26.57582 2458 ft 169 kts 328°
2026-05-05 11:11 39.09657 26.56744 3037 ft 189 kts 329°
2026-05-05 11:11 39.10856 26.55799 3602 ft 215 kts 330°
2026-05-05 11:12 39.12209 26.54745 4421 ft 237 kts 330°
2026-05-05 11:12 39.13659 26.53602 5376 ft 252 kts 330°
2026-05-05 11:12 39.15115 26.52276 5705 ft 258 kts 319°
2026-05-05 11:12 39.16410 26.50672 5860 ft 259 kts 318°
2026-05-05 11:13 39.17711 26.49074 5951 ft 259 kts 318°
2026-05-05 11:13 39.19020 26.47482 5965 ft 258 kts 319°
2026-05-05 11:13 39.20330 26.45896 5970 ft 258 kts 319°
2026-05-05 11:13 39.21641 26.44314 5970 ft 258 kts 319°
2026-05-05 11:14 39.22816 26.42567 5961 ft 260 kts 300°
2026-05-05 11:14 39.23339 26.40325 6008 ft 265 kts 283°
2026-05-05 11:14 39.23668 26.37978 5974 ft 265 kts 283°
2026-05-05 11:14 39.23983 26.35665 5968 ft 266 kts 283°
2026-05-05 11:15 39.24294 26.33314 5967 ft 266 kts 283°
2026-05-05 11:15 39.24601 26.30959 6007 ft 267 kts 282°
2026-05-05 11:15 39.24903 26.28599 5964 ft 266 kts 283°
2026-05-05 11:15 39.25203 26.26241 5976 ft 267 kts 282°
2026-05-05 11:16 39.25503 26.23879 5996 ft 267 kts 282°
2026-05-05 11:16 39.25808 26.21517 5981 ft 267 kts 282°
2026-05-05 11:16 39.26108 26.19120 5992 ft 267 kts 282°
2026-05-05 11:16 39.26401 26.16791 5985 ft 266 kts 282°
2026-05-05 11:17 39.26602 26.15201 5998 ft 266 kts 282°
2026-05-05 11:17 39.26990 26.12070 5979 ft 267 kts 281°